| time (UTC) | temp C | wind direction | speed KPH | gust KPH | rain 1hr cm | rain 24hr cm | rain mn cm | humidity % | barometer mb |
| 20260503003233 | 20 | 262 | 3.2 | 11.3 | 0.00 | 0.00 | 0.00 | 22 | 1017.0 |
| 20260503001730 | 20 | 285 | 1.6 | 6.4 | 0.00 | 0.00 | 0.00 | 21 | 1016.9 |
| 20260503000233 | 21 | 274 | 11.3 | 14.5 | 0.00 | 0.00 | 0.00 | 20 | 1017.1 |
| 20260502234728 | 21 | 232 | 3.2 | 12.9 | 0.00 | 0.00 | 0.00 | 20 | 1017.1 |
| 20260502233233 | 22 | 256 | 8.0 | 19.3 | 0.00 | 0.00 | 0.00 | 19 | 1017.4 |
| 20260502231727 | 22 | 237 | 3.2 | 8.0 | 0.00 | 0.00 | 0.00 | 19 | 1017.4 |
| 20260502230228 | 22 | 163 | 3.2 | 8.0 | 0.00 | 0.00 | 0.00 | 18 | 1017.5 |
| 20260502224726 | 23 | 216 | 8.0 | 12.9 | 0.00 | 0.00 | 0.00 | 18 | 1017.6 |
| 20260502223225 | 23 | 261 | 8.0 | 11.3 | 0.00 | 0.00 | 0.00 | 17 | 1017.7 |
| 20260502221728 | 24 | 247 | 8.0 | 9.7 | 0.00 | 0.00 | 0.00 | 17 | 1017.9 |
| 20260502220228 | 24 | 275 | 11.3 | 12.9 | 0.00 | 0.00 | 0.00 | 18 | 1018.1 |
| 20260502214722 | 24 | 225 | 6.4 | 12.9 | 0.00 | 0.00 | 0.00 | 18 | 1018.2 |
| 20260502213222 | 24 | 103 | 0.0 | 12.9 | 0.00 | 0.00 | 0.00 | 17 | 1018.6 |
| 20260502211721 | 24 | 259 | 4.8 | 8.0 | 0.00 | 0.00 | 0.00 | 18 | 1018.7 |
| 20260502210220 | 23 | 277 | 11.3 | 11.3 | 0.00 | 0.00 | 0.00 | 18 | 1018.8 |
| 20260502204720 | 23 | 290 | 8.0 | 11.3 | 0.00 | 0.00 | 0.00 | 18 | 1018.9 |
| 20260502203227 | 23 | 232 | 9.7 | 12.9 | 0.00 | 0.00 | 0.00 | 18 | 1019.1 |
| 20260502201718 | 23 | 290 | 9.7 | 25.7 | 0.00 | 0.00 | 0.00 | 18 | 1019.4 |
| 20260502200217 | 22 | 263 | 6.4 | 16.1 | 0.00 | 0.00 | 0.00 | 19 | 1019.6 |
| 20260502194717 | 22 | 262 | 6.4 | 14.5 | 0.00 | 0.00 | 0.00 | 20 | 1019.9 |
| 20260502193217 | 21 | 273 | 6.4 | 12.9 | 0.00 | 0.00 | 0.00 | 21 | 1019.9 |
| 20260502191715 | 21 | 320 | 11.3 | 14.5 | 0.00 | 0.00 | 0.00 | 22 | 1020.1 |
| 20260502190221 | 21 | 274 | 4.8 | 20.9 | 0.00 | 0.00 | 0.00 | 24 | 1020.2 |
| 20260502184713 | 20 | 297 | 11.3 | 17.7 | 0.00 | 0.00 | 0.00 | 25 | 1020.5 |
| 20260502183213 | 20 | 306 | 6.4 | 11.3 | 0.00 | 0.00 | 0.00 | 24 | 1020.5 |
| 20260502181716 | 20 | 304 | 9.7 | 16.1 | 0.00 | 0.00 | 0.00 | 25 | 1020.6 |
| 20260502180211 | 20 | 303 | 8.0 | 14.5 | 0.00 | 0.00 | 0.00 | 26 | 1020.7 |
| 20260502170208 | 18 | 276 | 8.0 | 9.7 | 0.00 | 0.00 | 0.00 | 30 | 1021.0 |
| 20260502163207 | 19 | 293 | 9.7 | 9.7 | 0.00 | 0.00 | 0.00 | 31 | 1020.9 |
| 20260502161706 | 18 | 315 | 4.8 | 14.5 | 0.00 | 0.00 | 0.00 | 33 | 1021.0 |
| 20260502160205 | 17 | 259 | 3.2 | 8.0 | 0.00 | 0.00 | 0.00 | 34 | 1020.9 |
| 20260502151703 | 17 | 334 | 4.8 | 6.4 | 0.00 | 0.00 | 0.00 | 37 | 1020.8 |
| 20260502150202 | 16 | 246 | 3.2 | 6.4 | 0.00 | 0.00 | 0.00 | 38 | 1020.9 |
| 20260502130201 | 10 | 315 | 3.2 | 4.8 | 0.00 | 0.00 | 0.00 | 48 | 1020.9 |
| 20260502123156 | 10 | 270 | 0.0 | 1.6 | 0.00 | 0.00 | 0.00 | 48 | 1020.9 |
| 20260502121654 | 10 | 291 | 3.2 | 4.8 | 0.00 | 0.00 | 0.00 | 47 | 1020.7 |
| 20260502120156 | 10 | 313 | 1.6 | 9.7 | 0.00 | 0.00 | 0.00 | 47 | 1020.7 |
| 20260502114656 | 10 | 270 | 3.2 | 4.8 | 0.00 | 0.00 | 0.00 | 46 | 1020.6 |
| 20260502113201 | 10 | 270 | 3.2 | 6.4 | 0.00 | 0.00 | 0.00 | 45 | 1020.5 |
| 20260502111651 | 10 | 45 | 0.0 | 1.6 | 0.00 | 0.00 | 0.00 | 44 | 1020.1 |
| 20260502110150 | 11 | 175 | 0.0 | 1.6 | 0.00 | 0.00 | 0.00 | 43 | 1020.2 |
| 20260502104649 | 11 | 225 | 0.0 | 4.8 | 0.00 | 0.00 | 0.00 | 42 | 1020.3 |
| 20260502103149 | 11 | 45 | 0.0 | 3.2 | 0.00 | 0.00 | 0.00 | 42 | 1020.1 |
| 20260502101650 | 11 | 170 | 3.2 | 3.2 | 0.00 | 0.00 | 0.00 | 41 | 1020.0 |
| 20260502100155 | 11 | 269 | 0.0 | 0.0 | 0.00 | 0.00 | 0.00 | 40 | 1019.9 |
| 20260502090149 | 12 | 45 | 0.0 | 0.0 | 0.00 | 0.00 | 0.00 | 39 | 1019.5 |
| 20260502070148 | 12 | 40 | 4.8 | 6.4 | 0.00 | 0.00 | 0.00 | 38 | 1018.6 |
| 20260502064637 | 12 | 37 | 4.8 | 6.4 | 0.00 | 0.00 | 0.00 | 37 | 1018.4 |
| 20260502063137 | 12 | 67 | 3.2 | 6.4 | 0.00 | 0.00 | 0.00 | 36 | 1018.2 |
| 20260502061636 | 13 | 48 | 9.7 | 9.7 | 0.00 | 0.00 | 0.00 | 35 | 1018.0 |
| 20260502060137 | 13 | 32 | 4.8 | 14.5 | 0.00 | 0.00 | 0.00 | 35 | 1017.8 |
| 20260502054635 | 13 | 18 | 6.4 | 14.5 | 0.00 | 0.00 | 0.00 | 33 | 1017.6 |
| 20260502053142 | 14 | 38 | 8.0 | 14.5 | 0.00 | 0.00 | 0.00 | 32 | 1017.4 |
| 20260502051633 | 15 | 0 | 9.7 | 14.5 | 0.00 | 0.00 | 0.00 | 30 | 1017.0 |
| 20260502050132 | 15 | 276 | 3.2 | 6.4 | 0.00 | 0.00 | 0.00 | 29 | 1017.0 |
| 20260502044631 | 15 | 341 | 4.8 | 4.8 | 0.00 | 0.00 | 0.00 | 28 | 1016.8 |
| 20260502043131 | 15 | 8 | 3.2 | 6.4 | 0.00 | 0.00 | 0.00 | 27 | 1016.2 |
| 20260502041630 | 15 | 0 | 1.6 | 4.8 | 0.00 | 0.00 | 0.00 | 27 | 1015.8 |
| 20260502040136 | 16 | 37 | 6.4 | 6.4 | 0.00 | 0.00 | 0.00 | 27 | 1015.8 |
| 20260502034628 | 16 | 46 | 0.0 | 3.2 | 0.00 | 0.00 | 0.00 | 26 | 1015.6 |
| 20260502033128 | 17 | 45 | 3.2 | 4.8 | 0.00 | 0.00 | 0.00 | 25 | 1015.4 |
| 20260502031627 | 17 | 45 | 0.0 | 0.0 | 0.00 | 0.00 | 0.00 | 24 | 1015.3 |
| 20260502030126 | 18 | 315 | 0.0 | 0.0 | 0.00 | 0.00 | 0.00 | 23 | 1015.1 |
| 20260502020123 | 20 | 0 | 1.6 | 3.2 | 0.00 | 0.00 | 0.00 | 20 | 1014.8 |